Weather History for KBDR - May, 2014

Change the Weather History Date:

Tuesday, May 20, 2014

  Actual Average Record
Temperature  
Mean Temperature 67 °F 60 °F  
Max Temperature 79 °F 69 °F 97 °F (1996)
Min Temperature 54 °F 52 °F 39 °F (2002)
Degree Days  
Heating Degree Days 0 5  
Month to date heating degree days 96 160  
Since 1 July heating degree days 5576 5315  
Cooling Degree Days 2 1  
Month to date cooling degree days 11 6  
Year to date cooling degree days 11 8  
Growing Degree Days 16 (Base 50)    
Moisture  
Dew Point 39 °F    
Average Humidity 43    
Maximum Humidity 67    
Minimum Humidity 18    
Precipitation  
Precipitation 0.00 in 0.13 in 1.60 in (1973)
Month to date precipitation 3.19 2.32  
Year to date precipitation 20.85 16.39  
Snow  
Snow 0.00 in 0.00 in 0.00 in (2002)
Month to date snowfall 0.0 0.0  
Since 1 July snowfall 57.4 27.6  
Snow Depth 0.00 in    
Sea Level Pressure  
Sea Level Pressure 30.03 in    
Wind  
Wind Speed 10 mph (NW)    
Max Wind Speed 23 mph    
Max Gust Speed 32 mph    
Visibility 10 miles    
Events      
T = Trace of Precipitation, MM = Missing Value Source: NWS Daily Summary

Daily Weather History Graph

Daily Weather History Graph

Search for Another Location

Airport or City:

Trip Planner

Search our weather history database for the weather conditions in past years. The results will help you decide how hot, cold, wet, or windy it might be!

Date:

Astronomy

May. 20, 2014 Rise Set
Actual Time 5:29 AM EDT 8:08 PM EDT
Civil Twilight 4:57 AM EDT 8:40 PM EDT
Nautical Twilight 4:18 AM EDT 9:20 PM EDT
Astronomical Twilight 3:33 AM EDT 10:06 PM EDT
Moon 12:35 AM EDT (5/20) 11:35 AM EDT (5/20)
Length of Visible Light 15h 42m
Length of Day
14h 38m
Waning Gibbous, 60% of the Moon is Illuminated
May 20
Waning Gibbous
May 21
Last Quarter
May 28
New
Jun 5
First Quarter
Jun 13
Full

Hourly Weather History & Observations

Time (EDT) Temp. Dew Point Humidity Pressure Visibility Wind Dir Wind Speed Gust Speed Precip Events Conditions
12:52 AM 59.0 °F 39.0 °F 48% 30.07 in 10.0 mi NW 9.2 mph - N/A   Clear
1:52 AM 57.9 °F 39.0 °F 49% 30.06 in 10.0 mi NW 11.5 mph - N/A   Clear
2:52 AM 57.0 °F 39.9 °F 53% 30.06 in 10.0 mi NW 9.2 mph - N/A   Clear
3:52 AM 55.9 °F 39.9 °F 55% 30.07 in 10.0 mi NW 8.1 mph - N/A   Clear
4:52 AM 53.6 °F 39.2 °F 58% 30.08 in 10.0 mi NW 8.1 mph - N/A   Clear
5:52 AM 54.0 °F 39.9 °F 59% 30.09 in 10.0 mi NNW 8.1 mph - N/A   Clear
6:52 AM 57.0 °F 41.0 °F 55% 30.10 in 10.0 mi NW 12.7 mph 19.6 mph N/A   Clear
7:52 AM 60.1 °F 41.0 °F 49% 30.10 in 10.0 mi NW 13.8 mph 20.7 mph N/A   Clear
8:52 AM 64.9 °F 42.1 °F 43% 30.09 in 10.0 mi NNW 11.5 mph 19.6 mph N/A   Clear
9:52 AM 68.0 °F 42.1 °F 39% 30.07 in 10.0 mi NW 18.4 mph 25.3 mph N/A   Clear
10:52 AM 71.1 °F 37.9 °F 30% 30.06 in 10.0 mi NNW 16.1 mph 24.2 mph N/A   Clear
11:52 AM 73.0 °F 35.1 °F 25% 30.03 in 10.0 mi NW 19.6 mph 32.2 mph N/A   Clear
12:52 PM 75.0 °F 34.0 °F 22% 30.01 in 10.0 mi NW 20.7 mph 28.8 mph N/A   Clear
1:52 PM 75.9 °F 30.0 °F 19% 30.01 in 10.0 mi North 21.9 mph 31.1 mph N/A   Clear
2:52 PM 77.0 °F 30.9 °F 19% 29.99 in 10.0 mi NNW 16.1 mph 29.9 mph N/A   Clear
3:52 PM 78.1 °F 33.1 °F 19% 29.98 in 10.0 mi NNW 13.8 mph 21.9 mph N/A   Clear
4:52 PM 78.8 °F 35.6 °F 21% 29.97 in 10.0 mi NW 9.2 mph - N/A   Partly Cloudy
5:52 PM 75.9 °F 34.0 °F 22% 29.96 in 10.0 mi NNW 8.1 mph - N/A   Clear
6:52 PM 72.0 °F 39.0 °F 30% 29.96 in 10.0 mi Variable 3.5 mph - N/A   Clear
7:52 PM 69.1 °F 39.0 °F 33% 29.96 in 10.0 mi SSW 4.6 mph - N/A   Clear
8:52 PM 64.9 °F 46.9 °F 52% 29.98 in 10.0 mi SSW 8.1 mph - N/A   Partly Cloudy
9:52 PM 63.0 °F 50.0 °F 63% 29.99 in 10.0 mi WSW 3.5 mph - N/A   Mostly Cloudy
10:52 PM 64.0 °F 48.9 °F 58% 29.97 in 10.0 mi SW 4.6 mph - N/A   Clear
11:52 PM 62.1 °F 51.1 °F 67% 29.97 in 10.0 mi Calm Calm - N/A   Scattered Clouds